Time,TemperatureF,DewpointF,PressureIn,WindDirection,WindDirectionDegrees,WindSpeedMPH,WindSpeedGustMPH,Humidity,HourlyPrecipIn,Conditions,Clouds,dailyrainin,SoftwareType,DateUTC
2013-03-24 00:11:00,31.5,21.0,30.00,NNE,32,2.0,4.0,66,0.00,,,0.00,weatherlink.com 1.10,2013-03-24 04:11:00,
2013-03-24 00:27:00,31.4,21.0,30.00,NNE,29,3.0,4.0,66,0.00,,,0.00,weatherlink.com 1.10,2013-03-24 04:27:00,
2013-03-24 00:42:00,31.0,21.0,29.99,NNE,23,4.0,5.0,67,0.00,,,0.00,weatherlink.com 1.10,2013-03-24 04:42:00,
2013-03-24 00:57:00,30.6,22.0,29.98,North,8,2.0,7.0,69,0.00,,,0.00,weatherlink.com 1.10,2013-03-24 04:57:00,
2013-03-24 01:12:00,30.3,21.0,29.99,East,84,0.0,6.0,69,0.00,,,0.00,weatherlink.com 1.10,2013-03-24 05:12:00,
2013-03-24 01:27:00,30.0,21.0,29.99,NNW,347,0.0,6.0,70,0.00,,,0.00,weatherlink.com 1.10,2013-03-24 05:27:00,
2013-03-24 01:42:00,29.7,21.0,29.99,North,8,3.0,3.0,71,0.00,,,0.00,weatherlink.com 1.10,2013-03-24 05:42:00,
2013-03-24 01:57:00,29.6,21.0,29.99,ENE,64,0.0,5.0,71,0.00,,,0.00,weatherlink.com 1.10,2013-03-24 05:57:00,
2013-03-24 02:12:00,29.5,21.0,29.99,North,354,1.0,3.0,71,0.00,,,0.00,weatherlink.com 1.10,2013-03-24 06:12:00,
2013-03-24 02:27:00,29.3,21.0,29.99,NNE,22,1.0,3.0,71,0.00,,,0.00,weatherlink.com 1.10,2013-03-24 06:27:00,
2013-03-24 02:42:00,29.1,21.0,29.99,North,6,0.0,2.0,72,0.00,,,0.00,weatherlink.com 1.10,2013-03-24 06:42:00,
2013-03-24 02:57:00,28.8,21.0,29.99,North,8,1.0,1.0,73,0.00,,,0.00,weatherlink.com 1.10,2013-03-24 06:57:00,
2013-03-24 03:12:00,28.8,21.0,29.98,North,349,1.0,4.0,73,0.00,,,0.00,weatherlink.com 1.10,2013-03-24 07:12:00,
2013-03-24 03:27:00,28.8,21.0,29.97,ENE,64,2.0,3.0,73,0.00,,,0.00,weatherlink.com 1.10,2013-03-24 07:27:00,
2013-03-24 03:42:00,28.7,21.0,29.97,NE,49,1.0,4.0,73,0.00,,,0.00,weatherlink.com 1.10,2013-03-24 07:42:00,
2013-03-24 03:57:00,28.5,21.0,29.97,NE,39,3.0,5.0,74,0.00,,,0.00,weatherlink.com 1.10,2013-03-24 07:57:00,
2013-03-24 04:12:00,28.4,21.0,29.97,NNE,20,0.0,4.0,74,0.00,,,0.00,weatherlink.com 1.10,2013-03-24 08:12:00,
2013-03-24 04:27:00,28.2,21.0,29.98,North,8,1.0,4.0,74,0.00,,,0.00,weatherlink.com 1.10,2013-03-24 08:27:00,
2013-03-24 04:42:00,28.0,21.0,29.98,West,274,1.0,3.0,75,0.00,,,0.00,weatherlink.com 1.10,2013-03-24 08:42:00,
2013-03-24 04:57:00,27.8,21.0,29.98,North,8,0.0,2.0,76,0.00,,,0.00,weatherlink.com 1.10,2013-03-24 08:57:00,
2013-03-24 05:12:00,27.7,21.0,29.97,NNE,16,1.0,4.0,76,0.00,,,0.00,weatherlink.com 1.10,2013-03-24 09:12:00,
2013-03-24 05:27:00,27.8,21.0,29.98,North,5,1.0,4.0,76,0.00,,,0.00,weatherlink.com 1.10,2013-03-24 09:27:00,
2013-03-24 05:42:00,27.6,21.0,29.97,North,11,1.0,4.0,77,0.00,,,0.00,weatherlink.com 1.10,2013-03-24 09:42:00,
2013-03-24 05:57:00,27.4,21.0,29.96,North,5,2.0,2.0,78,0.00,,,0.00,weatherlink.com 1.10,2013-03-24 09:57:00,
2013-03-24 06:12:00,27.3,21.0,29.97,NNE,15,2.0,4.0,78,0.00,,,0.00,weatherlink.com 1.10,2013-03-24 10:12:00,
2013-03-24 06:27:00,27.1,21.0,29.96,NNE,15,1.0,3.0,78,0.00,,,0.00,weatherlink.com 1.10,2013-03-24 10:27:00,
2013-03-24 06:42:00,27.0,21.0,29.96,NNE,20,4.0,5.0,79,0.00,,,0.00,weatherlink.com 1.10,2013-03-24 10:42:00,
2013-03-24 06:57:00,26.8,21.0,29.97,NNW,347,1.0,3.0,79,0.00,,,0.00,weatherlink.com 1.10,2013-03-24 10:57:00,
2013-03-24 07:12:00,26.7,21.0,29.97,NNE,15,2.0,7.0,80,0.00,,,0.00,weatherlink.com 1.10,2013-03-24 11:12:00,
2013-03-24 07:27:00,26.6,21.0,29.96,NNE,15,3.0,5.0,80,0.00,,,0.00,weatherlink.com 1.10,2013-03-24 11:27:00,
2013-03-24 07:42:00,26.7,21.0,29.96,NNE,18,2.0,5.0,80,0.00,,,0.00,weatherlink.com 1.10,2013-03-24 11:42:00,
2013-03-24 07:57:00,26.8,21.0,29.96,NNE,23,2.0,4.0,80,0.00,,,0.00,weatherlink.com 1.10,2013-03-24 11:57:00,
2013-03-24 08:12:00,27.0,22.0,29.95,ENE,70,0.0,5.0,80,0.00,,,0.00,weatherlink.com 1.10,2013-03-24 12:12:00,
2013-03-24 08:27:00,27.3,22.0,29.94,NNE,19,3.0,7.0,80,0.00,,,0.00,weatherlink.com 1.10,2013-03-24 12:27:00,
2013-03-24 08:42:00,27.7,22.0,29.94,NNE,23,3.0,4.0,79,0.00,,,0.00,weatherlink.com 1.10,2013-03-24 12:42:00,
2013-03-24 08:57:00,28.0,22.0,29.93,NNE,30,4.0,5.0,78,0.00,,,0.00,weatherlink.com 1.10,2013-03-24 12:57:00,
2013-03-24 09:13:00,28.1,22.0,29.91,NNE,18,4.0,10.0,78,0.00,,,0.00,weatherlink.com 1.10,2013-03-24 13:13:00,
2013-03-24 09:28:00,28.4,22.0,29.91,WNW,297,2.0,8.0,77,0.00,,,0.00,weatherlink.com 1.10,2013-03-24 13:28:00,
2013-03-24 09:43:00,29.0,22.0,29.91,NE,47,6.0,7.0,76,0.00,,,0.00,weatherlink.com 1.10,2013-03-24 13:43:00,
2013-03-24 09:58:00,29.6,23.0,29.91,NNE,20,5.0,6.0,75,0.00,,,0.00,weatherlink.com 1.10,2013-03-24 13:58:00,
2013-03-24 10:13:00,30.4,23.0,29.88,NW,304,2.0,6.0,73,0.00,,,0.00,weatherlink.com 1.10,2013-03-24 14:13:00,
2013-03-24 10:28:00,30.8,23.0,29.87,ESE,121,2.0,10.0,72,0.00,,,0.00,weatherlink.com 1.10,2013-03-24 14:28:00,
2013-03-24 10:43:00,32.0,23.0,29.86,SE,127,1.0,10.0,70,0.00,,,0.00,weatherlink.com 1.10,2013-03-24 14:43:00,
2013-03-24 10:58:00,32.2,22.0,29.83,NNE,20,4.0,11.0,67,0.00,,,0.00,weatherlink.com 1.10,2013-03-24 14:58:00,
2013-03-24 11:13:00,32.8,23.0,29.83,NNE,18,4.0,9.0,66,0.00,,,0.00,weatherlink.com 1.10,2013-03-24 15:13:00,
2013-03-24 11:28:00,33.6,23.0,29.81,North,357,9.0,10.0,65,0.00,,,0.00,weatherlink.com 1.10,2013-03-24 15:28:00,
2013-03-24 11:43:00,34.0,22.0,29.80,NNE,29,8.0,14.0,63,0.00,,,0.00,weatherlink.com 1.10,2013-03-24 15:43:00,
2013-03-24 11:58:00,35.0,23.0,29.79,NE,49,3.0,9.0,61,0.00,,,0.00,weatherlink.com 1.10,2013-03-24 15:58:00,
2013-03-24 12:13:00,36.0,23.0,29.78,East,94,7.0,10.0,59,0.00,,,0.00,weatherlink.com 1.10,2013-03-24 16:13:00,
2013-03-24 12:28:00,37.2,22.0,29.78,NE,37,5.0,6.0,55,0.00,,,0.00,weatherlink.com 1.10,2013-03-24 16:28:00,
2013-03-24 12:43:00,37.4,23.0,29.76,NE,39,0.0,6.0,56,0.00,,,0.00,weatherlink.com 1.10,2013-03-24 16:43:00,
2013-03-24 12:58:00,37.8,22.0,29.75,NE,49,4.0,8.0,54,0.00,,,0.00,weatherlink.com 1.10,2013-03-24 16:58:00,
2013-03-24 13:13:00,37.8,22.0,29.74,NNW,347,4.0,11.0,53,0.00,,,0.00,weatherlink.com 1.10,2013-03-24 17:13:00,
2013-03-24 13:28:00,38.4,22.0,29.74,NE,46,7.0,9.0,52,0.00,,,0.00,weatherlink.com 1.10,2013-03-24 17:28:00,
2013-03-24 13:43:00,38.9,22.0,29.73,NNE,27,2.0,8.0,50,0.00,,,0.00,weatherlink.com 1.10,2013-03-24 17:43:00,
2013-03-24 13:58:00,39.7,22.0,29.72,NE,56,6.0,8.0,50,0.00,,,0.00,weatherlink.com 1.10,2013-03-24 17:58:00,
2013-03-24 14:14:00,40.0,22.0,29.72,NNE,15,3.0,7.0,49,0.00,,,0.00,weatherlink.com 1.10,2013-03-24 18:14:00,
2013-03-24 14:29:00,41.1,22.0,29.71,NNW,347,3.0,8.0,47,0.00,,,0.00,weatherlink.com 1.10,2013-03-24 18:29:00,
2013-03-24 14:44:00,42.7,23.0,29.71,ESE,107,6.0,7.0,45,0.00,,,0.00,weatherlink.com 1.10,2013-03-24 18:44:00,
2013-03-24 14:59:00,44.7,24.0,29.70,North,11,5.0,7.0,45,0.00,,,0.00,weatherlink.com 1.10,2013-03-24 18:59:00,
2013-03-24 15:14:00,44.3,22.0,29.70,NNE,26,0.0,7.0,42,0.00,,,0.00,weatherlink.com 1.10,2013-03-24 19:14:00,
2013-03-24 15:29:00,44.0,23.0,29.70,NW,326,2.0,8.0,43,0.00,,,0.00,weatherlink.com 1.10,2013-03-24 19:29:00,
2013-03-24 15:44:00,43.6,22.0,29.68,ENE,58,4.0,8.0,43,0.00,,,0.00,weatherlink.com 1.10,2013-03-24 19:44:00,
2013-03-24 15:59:00,43.7,22.0,29.68,NE,51,3.0,7.0,43,0.00,,,0.00,weatherlink.com 1.10,2013-03-24 19:59:00,
2013-03-24 16:14:00,43.9,23.0,29.66,ENE,73,0.0,11.0,44,0.00,,,0.00,weatherlink.com 1.10,2013-03-24 20:14:00,
2013-03-24 16:29:00,43.6,22.0,29.66,East,99,5.0,11.0,42,0.00,,,0.00,weatherlink.com 1.10,2013-03-24 20:29:00,
2013-03-24 16:44:00,43.6,22.0,29.65,NNW,339,3.0,10.0,43,0.00,,,0.00,weatherlink.com 1.10,2013-03-24 20:44:00,
2013-03-24 16:59:00,43.5,22.0,29.64,East,81,5.0,7.0,43,0.00,,,0.00,weatherlink.com 1.10,2013-03-24 20:59:00,
2013-03-24 17:14:00,43.1,22.0,29.64,North,5,2.0,10.0,43,0.00,,,0.00,weatherlink.com 1.10,2013-03-24 21:14:00,
2013-03-24 17:29:00,43.2,22.0,29.64,NNE,22,2.0,10.0,43,0.00,,,0.00,weatherlink.com 1.10,2013-03-24 21:29:00,
2013-03-24 17:44:00,42.8,22.0,29.63,East,92,1.0,10.0,44,0.00,,,0.00,weatherlink.com 1.10,2013-03-24 21:44:00,
2013-03-24 17:59:00,42.7,23.0,29.62,ENE,60,1.0,9.0,45,0.00,,,0.00,weatherlink.com 1.10,2013-03-24 21:59:00,
2013-03-24 18:14:00,42.5,22.0,29.61,ENE,77,2.0,7.0,45,0.00,,,0.00,weatherlink.com 1.10,2013-03-24 22:14:00,
2013-03-24 18:29:00,42.1,23.0,29.60,SSE,151,2.0,9.0,46,0.00,,,0.00,weatherlink.com 1.10,2013-03-24 22:29:00,
2013-03-24 18:45:00,41.8,23.0,29.59,ESE,113,6.0,12.0,47,0.00,,,0.00,weatherlink.com 1.10,2013-03-24 22:45:00,
2013-03-24 18:59:00,41.5,23.0,29.60,ESE,113,2.0,8.0,48,0.00,,,0.00,weatherlink.com 1.10,2013-03-24 22:59:00,
2013-03-24 19:14:00,41.2,23.0,29.60,SE,129,3.0,13.0,48,0.00,,,0.00,weatherlink.com 1.10,2013-03-24 23:14:00,
2013-03-24 19:29:00,40.9,22.0,29.60,ESE,109,4.0,9.0,48,0.00,,,0.00,weatherlink.com 1.10,2013-03-24 23:29:00,
2013-03-24 19:44:00,39.6,24.0,29.60,East,92,17.0,17.0,54,0.00,,,0.00,weatherlink.com 1.10,2013-03-24 23:44:00,
2013-03-24 19:59:00,37.1,27.0,29.60,ESE,122,3.0,13.0,66,0.00,,,0.00,weatherlink.com 1.10,2013-03-24 23:59:00,
2013-03-24 20:14:00,37.3,26.0,29.60,East,98,0.0,9.0,65,0.00,,,0.00,weatherlink.com 1.10,2013-03-25 00:14:00,
2013-03-24 20:29:00,35.5,29.0,29.60,SE,134,3.0,13.0,77,0.00,,,0.00,weatherlink.com 1.10,2013-03-25 00:29:00,
2013-03-24 20:44:00,34.2,30.0,29.60,East,92,3.0,8.0,83,0.00,,,0.00,weatherlink.com 1.10,2013-03-25 00:44:00,
2013-03-24 20:59:00,33.6,30.0,29.60,South,184,3.0,9.0,86,0.00,,,0.00,weatherlink.com 1.10,2013-03-25 00:59:00,
2013-03-24 21:14:00,33.4,30.0,29.60,NNE,20,7.0,8.0,87,0.00,,,0.00,weatherlink.com 1.10,2013-03-25 01:14:00,
2013-03-24 21:29:00,33.5,30.0,29.59,NE,47,0.0,10.0,86,0.00,,,0.00,weatherlink.com 1.10,2013-03-25 01:29:00,
2013-03-24 21:44:00,33.4,30.0,29.59,SSE,150,1.0,8.0,86,0.00,,,0.00,weatherlink.com 1.10,2013-03-25 01:44:00,
2013-03-24 21:59:00,33.5,30.0,29.58,ENE,77,0.0,7.0,85,0.00,,,0.00,weatherlink.com 1.10,2013-03-25 01:59:00,
2013-03-24 22:14:00,33.5,30.0,29.57,NE,49,1.0,8.0,85,0.00,,,0.00,weatherlink.com 1.10,2013-03-25 02:14:00,
2013-03-24 22:30:00,33.2,30.0,29.57,SE,138,0.0,9.0,87,0.00,,,0.00,weatherlink.com 1.10,2013-03-25 02:30:00,
2013-03-24 22:45:00,33.4,30.0,29.56,ESE,122,2.0,14.0,86,0.00,,,0.00,weatherlink.com 1.10,2013-03-25 02:45:00,
2013-03-24 23:00:00,33.5,30.0,29.55,NNW,330,1.0,12.0,86,0.00,,,0.00,weatherlink.com 1.10,2013-03-25 03:00:00,
2013-03-24 23:15:00,33.4,30.0,29.55,ENE,65,2.0,16.0,86,0.00,,,0.00,weatherlink.com 1.10,2013-03-25 03:15:00,
2013-03-24 23:30:00,33.4,30.0,29.55,NW,316,1.0,9.0,86,0.00,,,0.00,weatherlink.com 1.10,2013-03-25 03:30:00,
2013-03-24 23:45:00,33.1,30.0,29.54,NNE,28,2.0,10.0,87,0.00,,,0.00,weatherlink.com 1.10,2013-03-25 03:45:00,